Regional Weather Roundup
Issued by NWS

Home | Current Version | Previous Version | Graphics & Text | Print | Product List | Glossary On
Versions: 1 2 3 4 5 6 7 8 9 10 11 12 13 14 15 16 17 18 19 20 21 22 23 24 25 26 27 28 29 30 31 32 33 34 35 36 37 38 39 40 41 42 43 44 45 46 47 48 49 50
693
ASUS43 KTOP 222108
RWRKS

WEATHER ROUNDUP FOR KANSAS
NATIONAL WEATHER SERVICE GOODLAND KS
400 PM CDT WED MAR 22 2017

NOTE:  "FAIR" INDICATES FEW OR NO CLOUDS BELOW 12,000 FEET WITH NO
SIGNIFICANT WEATHER AND/OR OBSTRUCTIONS TO VISIBILITY.

KSZ001>006-013>018-027>032-041>047-222200-
NORTHWEST KANSAS

CITY           SKY/WX    TMP DP  RH WIND       PRES   REMARKS
GOODLAND       CLOUDY    57  37  47 S24       29.99F
HAYS             N/A     52  31  44 SE12      30.11F
HILL CITY      CLOUDY    53  32  44 SE14G23   30.10F
RUSSELL        CLOUDY    55  31  39 SE18G24   30.10F
$$

KSZ061>065-074>080-084>089-222200-
SOUTHWEST KANSAS

CITY           SKY/WX    TMP DP  RH WIND       PRES   REMARKS
DODGE CITY     MOSUNNY   62  36  37 S14G24    30.07F
ELKHART          N/A     67  40  37 S17         N/A
GARDEN CITY    SUNNY     61  37  41 SE17G24   30.04F
GREAT BEND     CLOUDY    55  34  45 SE13      30.11F
LIBERAL        SUNNY     64  39  39 S15G25    30.06F
PRATT          CLOUDY    51  32  48 SE9       30.12F
$$

KSZ066>073-081>083-090>101-222200-
SOUTHEAST KANSAS

CITY           SKY/WX    TMP DP  RH WIND       PRES   REMARKS
CHANUTE        CLOUDY    58  30  34 SE14      30.19F
COFFEYVILLE    CLOUDY    59  37  44 E12       30.18F
HUTCHINSON     CLOUDY    55  33  43 SE9       30.15F
MEDICINE LODGE   N/A     55  35  47 E8        30.11F
NEWTON         CLOUDY    54  31  41 E13       30.15F
PARSONS        CLOUDY    57  34  41 SE9       30.19F
WICHITA INTL   CLOUDY    57  36  45 E12G21    30.13F
WICHITA JABRA  CLOUDY    56  33  42 SE12G22   30.14F
WICHITA MCCONL CLOUDY    58  34  41 SE14      30.13F
WINFIELD       CLOUDY    60  40  47 E9        30.14F
$$

KSZ007>012-019>026-033>040-048>060-102>105-222200-
NORTHEAST KANSAS

CITY           SKY/WX    TMP DP  RH WIND       PRES   REMARKS
CONCORDIA      CLOUDY    54  24  31 SE18      30.16F
EMPORIA        CLOUDY    56  30  37 E17       30.17F
LAWRENCE       SUNNY     60  25  26 E15G24    30.23F
MANHATTAN      CLOUDY    59  23  25 SE15G22   30.17F
MARYSVILLE     CLOUDY    57  21  24 SE17      30.17F
OLATHE IND     MOSUNNY   57  28  33 E16G25    30.23F
OLATHE EXE     CLOUDY    56  28  34 E14       30.22F
SALINA         CLOUDY    59  28  30 SE16      30.16F
TOPEKA BILLARD SUNNY     58  23  26 E18       30.21F
TOPEKA FORBES  CLOUDY    58  24  27 E13       30.20F
$$




USA.gov is the U.S. government's official web portal to all federal, state and local government web resources and services.